Portada
METAR-TAF:

METAR-TAF

Aeropuertos :

Teruel, España

Aeródromo de Teruel

latitud: 40-24-43N, longitud: 01-13-03W, altitud: 1030 m

Observación

El informe se hizo hace 37 minutos, a las 16:00 UTC
Viento 4 kt del norte, variando entre oeste-noroeste y norte-noreste
Temperatura 25°C
Humedad 14%
Presión 1020 hPa
Visibilidad 10 km o más

METAR: LETL 201600Z AUTO 35004KT 300V020 9999 NCD 25/M04 Q1020

Hora: 18:37 (16:37 UTC)


TAF: falta

Observaciones y pronósticos meteorológicos de más de 4000 aeropuertos (mensajes METAR y TAF).

Los puntos amarillos y rojos representan las estaciones disponibles.

Ponga el ratón en el punto deseado para ver el nombre de la estación.

Haga clic para ver las observaciones y los pronósticos meteorológicos.

Para cambiar el mapa : haga clic en los botones verdes con una cruz de color negro para hacer un zoom, en el botón verde con un guión para alejar o en las flechas verdes para mapas adyacentes.


METAR-TAF: